Time,TemperatureF,DewpointF,PressureIn,WindDirection,WindDirectionDegrees,WindSpeedMPH,WindSpeedGustMPH,Humidity,HourlyPrecipIn,Conditions,Clouds,dailyrainin,SoftwareType,DateUTC
2013-05-09 00:01:00,62.6,58.1,29.99,SSW,203,3.4,4.0,85,0.02,,,0.00,WUHU216HW,2013-05-09 05:01:00,
2013-05-09 00:06:00,62.3,57.3,29.98,SSE,158,2.0,3.4,84,0.02,,,0.00,WUHU216HW,2013-05-09 05:06:00,
2013-05-09 00:11:00,62.3,57.7,29.97,East,90,3.4,3.4,85,0.02,,,0.00,WUHU216HW,2013-05-09 05:11:00,
2013-05-09 00:16:00,62.1,57.9,29.96,SE,135,4.9,4.9,86,0.02,,,0.00,WUHU216HW,2013-05-09 05:16:00,
2013-05-09 00:21:00,61.7,57.9,29.96,SSE,158,4.0,4.9,87,0.02,,,0.00,WUHU216HW,2013-05-09 05:21:00,
2013-05-09 00:26:00,61.7,57.9,29.96,SSE,158,1.8,4.9,87,0.02,,,0.00,WUHU216HW,2013-05-09 05:26:00,
2013-05-09 00:31:00,61.7,57.9,29.95,West,270,2.0,4.0,87,0.02,,,0.00,WUHU216HW,2013-05-09 05:31:00,
2013-05-09 00:36:00,61.7,57.9,29.95,NE,45,3.1,3.1,87,0.02,,,0.00,WUHU216HW,2013-05-09 05:36:00,
2013-05-09 00:41:00,61.7,57.9,29.95,ENE,68,2.5,3.1,87,0.01,,,0.00,WUHU216HW,2013-05-09 05:41:00,
2013-05-09 00:46:00,61.9,58.1,29.95,NNE,23,2.9,3.1,87,0.01,,,0.00,WUHU216HW,2013-05-09 05:46:00,
2013-05-09 00:51:00,61.9,58.1,29.95,NNE,23,3.4,3.4,87,0.00,,,0.00,WUHU216HW,2013-05-09 05:51:00,
2013-05-09 00:56:00,61.7,58.2,29.95,East,90,3.6,3.6,88,0.00,,,0.00,WUHU216HW,2013-05-09 05:56:00,
2013-05-09 01:01:00,61.6,58.1,29.96,SE,135,5.4,5.4,88,0.00,,,0.00,WUHU216HW,2013-05-09 06:01:00,
2013-05-09 01:06:00,61.6,58.1,29.97,SE,135,4.5,5.4,88,0.00,,,0.00,WUHU216HW,2013-05-09 06:06:00,
2013-05-09 01:11:00,61.6,58.3,29.97,SSE,158,3.4,4.5,89,0.00,,,0.00,WUHU216HW,2013-05-09 06:11:00,
2013-05-09 01:16:00,61.4,57.9,29.98,ESE,113,3.4,3.4,88,0.00,,,0.00,WUHU216HW,2013-05-09 06:16:00,
2013-05-09 01:21:00,61.4,57.9,29.99,SSW,203,2.0,3.4,88,0.00,,,0.00,WUHU216HW,2013-05-09 06:21:00,
2013-05-09 01:26:00,61.4,57.9,30.00,SSW,203,2.2,3.4,88,0.00,,,0.00,WUHU216HW,2013-05-09 06:26:00,
2013-05-09 01:31:00,61.4,58.1,30.00,South,180,4.5,4.5,89,0.00,,,0.00,WUHU216HW,2013-05-09 06:31:00,
2013-05-09 01:36:00,61.2,58.3,29.99,SSE,158,4.3,4.5,90,0.00,,,0.00,WUHU216HW,2013-05-09 06:36:00,
2013-05-09 01:41:00,61.0,57.8,29.99,SE,135,8.3,8.3,89,0.00,,,0.00,WUHU216HW,2013-05-09 06:41:00,
2013-05-09 01:46:00,60.8,57.3,29.99,SW,225,3.6,8.3,88,0.00,,,0.00,WUHU216HW,2013-05-09 06:46:00,
2013-05-09 01:51:00,60.5,57.0,29.98,South,180,1.3,8.3,88,0.00,,,0.00,WUHU216HW,2013-05-09 06:51:00,
2013-05-09 01:56:00,60.5,57.0,29.98,SSE,158,0.9,3.6,88,0.00,,,0.00,WUHU216HW,2013-05-09 06:56:00,
2013-05-09 02:01:00,60.3,56.8,29.97,South,180,1.1,1.1,88,0.00,,,0.00,WUHU216HW,2013-05-09 07:01:00,
2013-05-09 02:06:00,60.1,56.9,29.96,WSW,248,4.0,4.0,89,0.00,,,0.00,WUHU216HW,2013-05-09 07:06:00,
2013-05-09 02:11:00,60.1,56.3,29.96,SSW,203,9.6,10.3,87,0.00,,,0.00,WUHU216HW,2013-05-09 07:11:00,
2013-05-09 02:16:00,60.5,57.0,29.96,West,270,6.7,10.3,88,0.00,,,0.00,WUHU216HW,2013-05-09 07:16:00,
2013-05-09 02:21:00,60.5,57.2,29.96,SSW,203,9.2,9.6,89,0.00,,,0.00,WUHU216HW,2013-05-09 07:21:00,
2013-05-09 02:26:00,60.5,57.2,29.95,SW,225,3.4,9.2,89,0.00,,,0.00,WUHU216HW,2013-05-09 07:26:00,
2013-05-09 02:31:00,60.3,57.1,29.95,SW,225,1.8,6.3,89,0.00,,,0.00,WUHU216HW,2013-05-09 07:31:00,
2013-05-09 02:36:00,60.3,57.1,29.95,SW,225,2.0,3.4,89,0.00,,,0.00,WUHU216HW,2013-05-09 07:36:00,
2013-05-09 02:41:00,60.3,57.1,29.95,South,180,1.8,2.0,89,0.00,,,0.00,WUHU216HW,2013-05-09 07:41:00,
2013-05-09 02:46:00,60.3,57.4,29.95,North,0,0.0,2.0,90,0.00,,,0.00,WUHU216HW,2013-05-09 07:46:00,
2013-05-09 02:51:00,60.3,57.4,29.94,SSW,203,2.0,3.4,90,0.00,,,0.00,WUHU216HW,2013-05-09 07:51:00,
2013-05-09 02:56:00,60.3,57.4,29.94,WSW,248,1.3,3.4,90,0.00,,,0.00,WUHU216HW,2013-05-09 07:56:00,
2013-05-09 03:01:00,60.3,57.4,29.93,WNW,293,0.2,2.0,90,0.00,,,0.00,WUHU216HW,2013-05-09 08:01:00,
2013-05-09 03:06:00,60.3,57.4,29.93,NE,45,0.7,1.3,90,0.00,,,0.00,WUHU216HW,2013-05-09 08:06:00,
2013-05-09 03:11:00,60.5,57.6,29.93,South,180,1.8,1.8,90,0.00,,,0.00,WUHU216HW,2013-05-09 08:11:00,
2013-05-09 03:16:00,60.1,57.2,29.93,SSW,203,0.4,1.8,90,0.00,,,0.00,WUHU216HW,2013-05-09 08:16:00,
2013-05-09 03:21:00,60.1,57.2,29.93,South,180,1.1,1.8,90,0.00,,,0.00,WUHU216HW,2013-05-09 08:21:00,
2013-05-09 03:26:00,59.9,57.1,29.92,SSW,203,0.2,1.1,90,0.00,,,0.00,WUHU216HW,2013-05-09 08:26:00,
2013-05-09 03:31:00,59.8,56.9,29.92,ESE,113,0.7,1.1,90,0.00,,,0.00,WUHU216HW,2013-05-09 08:31:00,
2013-05-09 03:36:00,60.1,57.2,29.91,NNE,23,0.0,1.8,90,0.00,,,0.00,WUHU216HW,2013-05-09 08:36:00,
2013-05-09 03:41:00,59.6,56.7,29.92,SSE,158,1.8,1.8,90,0.00,,,0.00,WUHU216HW,2013-05-09 08:41:00,
2013-05-09 03:46:00,59.4,56.5,29.91,SSE,158,1.8,1.8,90,0.00,,,0.00,WUHU216HW,2013-05-09 08:46:00,
2013-05-09 03:51:00,59.4,56.5,29.91,SSE,158,1.6,1.8,90,0.00,,,0.00,WUHU216HW,2013-05-09 08:51:00,
2013-05-09 03:56:00,59.4,56.5,29.90,SE,135,1.6,1.8,90,0.00,,,0.00,WUHU216HW,2013-05-09 08:56:00,
2013-05-09 04:01:00,59.4,56.8,29.90,East,90,1.3,1.6,91,0.00,,,0.00,WUHU216HW,2013-05-09 09:01:00,
2013-05-09 04:06:00,59.4,56.5,29.89,East,90,1.1,1.6,90,0.00,,,0.00,WUHU216HW,2013-05-09 09:06:00,
2013-05-09 04:11:00,59.6,56.7,29.89,SSW,203,1.1,1.3,90,0.00,,,0.00,WUHU216HW,2013-05-09 09:11:00,
2013-05-09 04:16:00,59.4,56.8,29.89,SSW,203,1.3,1.6,91,0.00,,,0.00,WUHU216HW,2013-05-09 09:16:00,
2013-05-09 04:21:00,59.2,56.6,29.89,South,180,1.8,1.8,91,0.00,,,0.00,WUHU216HW,2013-05-09 09:21:00,
2013-05-09 04:26:00,59.0,56.4,29.89,South,180,1.3,1.8,91,0.00,,,0.00,WUHU216HW,2013-05-09 09:26:00,
2013-05-09 04:31:00,58.9,56.0,29.90,South,180,3.1,3.1,90,0.00,,,0.00,WUHU216HW,2013-05-09 09:31:00,
2013-05-09 04:36:00,58.9,56.0,29.90,South,180,2.7,3.1,90,0.00,,,0.00,WUHU216HW,2013-05-09 09:36:00,
2013-05-09 04:41:00,58.9,56.3,29.90,South,180,2.9,2.9,91,0.00,,,0.00,WUHU216HW,2013-05-09 09:41:00,
2013-05-09 04:46:00,58.9,56.3,29.89,South,180,3.1,3.1,91,0.00,,,0.00,WUHU216HW,2013-05-09 09:46:00,
2013-05-09 04:51:00,59.0,56.4,29.90,SSW,203,1.8,3.4,91,0.00,,,0.00,WUHU216HW,2013-05-09 09:51:00,
2013-05-09 04:56:00,58.9,56.3,29.90,South,180,3.4,3.4,91,0.00,,,0.00,WUHU216HW,2013-05-09 09:56:00,
2013-05-09 05:01:00,58.9,56.3,29.89,SSE,158,5.1,5.1,91,0.00,,,0.00,WUHU216HW,2013-05-09 10:01:00,
2013-05-09 05:06:00,58.9,56.3,29.89,SE,135,4.5,5.1,91,0.00,,,0.00,WUHU216HW,2013-05-09 10:06:00,
2013-05-09 05:11:00,58.9,56.3,29.89,South,180,2.9,5.1,91,0.00,,,0.00,WUHU216HW,2013-05-09 10:11:00,
2013-05-09 05:16:00,59.0,56.4,29.89,SE,135,4.0,4.5,91,0.00,,,0.00,WUHU216HW,2013-05-09 10:16:00,
2013-05-09 05:21:00,59.0,56.7,29.88,ESE,113,4.7,4.7,92,0.00,,,0.00,WUHU216HW,2013-05-09 10:21:00,
2013-05-09 05:26:00,59.2,56.9,29.89,SSE,158,4.7,4.7,92,0.00,,,0.00,WUHU216HW,2013-05-09 10:26:00,
2013-05-09 05:31:00,59.2,56.9,29.88,SSE,158,4.5,4.7,92,0.00,,,0.00,WUHU216HW,2013-05-09 10:31:00,
2013-05-09 05:36:00,59.2,56.9,29.88,South,180,3.8,4.5,92,0.00,,,0.00,WUHU216HW,2013-05-09 10:36:00,
2013-05-09 05:41:00,59.2,56.9,29.88,SSE,158,4.7,4.7,92,0.00,,,0.00,WUHU216HW,2013-05-09 10:41:00,
2013-05-09 05:46:00,59.2,56.9,29.89,SE,135,3.1,5.1,92,0.00,,,0.00,WUHU216HW,2013-05-09 10:46:00,
2013-05-09 05:51:00,59.2,56.9,29.89,SE,135,3.4,5.1,92,0.00,,,0.00,WUHU216HW,2013-05-09 10:51:00,
2013-05-09 05:56:00,59.4,57.1,29.90,SW,225,1.8,3.4,92,0.00,,,0.00,WUHU216HW,2013-05-09 10:56:00,
2013-05-09 06:01:00,59.4,57.4,29.90,SW,225,1.1,1.8,93,0.00,,,0.00,WUHU216HW,2013-05-09 11:01:00,
2013-05-09 06:06:00,59.4,57.1,29.90,SSW,203,1.3,1.8,92,0.00,,,0.00,WUHU216HW,2013-05-09 11:06:00,
2013-05-09 06:11:00,59.2,56.9,29.90,South,180,1.8,1.8,92,0.00,,,0.00,WUHU216HW,2013-05-09 11:11:00,
2013-05-09 06:16:00,59.4,57.1,29.91,SSW,203,1.1,2.5,92,0.00,,,0.00,WUHU216HW,2013-05-09 11:16:00,
2013-05-09 06:21:00,59.4,57.4,29.91,SSW,203,0.4,2.5,93,0.00,,,0.00,WUHU216HW,2013-05-09 11:21:00,
2013-05-09 06:26:00,59.4,57.1,29.92,WSW,248,1.1,1.3,92,0.00,,,0.00,WUHU216HW,2013-05-09 11:26:00,
2013-05-09 06:31:00,59.6,57.2,29.92,NW,315,2.0,2.2,92,0.00,,,0.00,WUHU216HW,2013-05-09 11:31:00,
2013-05-09 06:36:00,59.6,57.2,29.92,North,0,1.6,2.5,92,0.00,,,0.00,WUHU216HW,2013-05-09 11:36:00,
2013-05-09 06:41:00,59.6,57.2,29.92,North,0,0.9,2.5,92,0.00,,,0.00,WUHU216HW,2013-05-09 11:41:00,
2013-05-09 06:46:00,59.6,57.2,29.92,NNW,338,0.4,1.6,92,0.00,,,0.00,WUHU216HW,2013-05-09 11:46:00,
2013-05-09 06:51:00,59.8,57.4,29.92,NNE,23,0.9,0.9,92,0.00,,,0.00,WUHU216HW,2013-05-09 11:51:00,
2013-05-09 06:56:00,59.8,57.4,29.92,North,0,0.7,1.3,92,0.00,,,0.00,WUHU216HW,2013-05-09 11:56:00,
2013-05-09 07:01:00,59.9,57.6,29.92,NNE,23,0.9,1.3,92,0.00,,,0.00,WUHU216HW,2013-05-09 12:01:00,
2013-05-09 07:06:00,59.9,57.6,29.92,NNE,23,1.1,1.1,92,0.00,,,0.00,WUHU216HW,2013-05-09 12:06:00,
2013-05-09 07:11:00,59.9,57.6,29.92,North,0,1.6,1.6,92,0.00,,,0.00,WUHU216HW,2013-05-09 12:11:00,
2013-05-09 07:16:00,59.9,57.6,29.92,NNW,338,0.7,1.8,92,0.00,,,0.00,WUHU216HW,2013-05-09 12:16:00,
2013-05-09 07:21:00,59.9,57.6,29.93,NNE,23,1.1,1.8,92,0.00,,,0.00,WUHU216HW,2013-05-09 12:21:00,
2013-05-09 07:26:00,60.1,57.8,29.93,NNE,23,1.3,1.3,92,0.00,,,0.00,WUHU216HW,2013-05-09 12:26:00,
2013-05-09 07:31:00,60.1,57.8,29.93,ESE,113,1.1,1.3,92,0.00,,,0.00,WUHU216HW,2013-05-09 12:31:00,
2013-05-09 07:36:00,60.1,57.8,29.92,SE,135,0.4,1.1,92,0.00,,,0.00,WUHU216HW,2013-05-09 12:36:00,
2013-05-09 07:41:00,60.1,57.8,29.93,East,90,1.3,1.3,92,0.00,,,0.00,WUHU216HW,2013-05-09 12:41:00,
2013-05-09 07:46:00,60.1,57.8,29.93,East,90,1.1,1.3,92,0.00,,,0.00,WUHU216HW,2013-05-09 12:46:00,
2013-05-09 07:51:00,60.1,57.8,29.93,ENE,68,1.8,1.8,92,0.00,,,0.00,WUHU216HW,2013-05-09 12:51:00,
2013-05-09 07:56:00,60.1,57.8,29.93,ENE,68,2.0,2.0,92,0.00,,,0.00,WUHU216HW,2013-05-09 12:56:00,
2013-05-09 08:01:00,60.1,57.8,29.93,East,90,2.5,2.7,92,0.00,,,0.00,WUHU216HW,2013-05-09 13:01:00,
2013-05-09 08:06:00,60.1,57.8,29.93,NNE,23,1.8,2.7,92,0.00,,,0.00,WUHU216HW,2013-05-09 13:06:00,
2013-05-09 08:11:00,60.1,57.8,29.92,ENE,68,1.1,2.5,92,0.00,,,0.00,WUHU216HW,2013-05-09 13:11:00,
2013-05-09 08:16:00,60.3,58.0,29.92,ENE,68,2.9,3.4,92,0.00,,,0.00,WUHU216HW,2013-05-09 13:16:00,
2013-05-09 08:21:00,60.3,58.3,29.91,NE,45,6.7,6.7,93,0.00,,,0.00,WUHU216HW,2013-05-09 13:21:00,
2013-05-09 08:26:00,60.3,58.0,29.92,East,90,1.3,6.7,92,0.00,,,0.00,WUHU216HW,2013-05-09 13:26:00,
2013-05-09 08:31:00,60.3,58.0,29.92,ESE,113,2.2,6.7,92,0.00,,,0.00,WUHU216HW,2013-05-09 13:31:00,
2013-05-09 08:36:00,60.5,58.1,29.92,SE,135,2.2,2.2,92,0.00,,,0.00,WUHU216HW,2013-05-09 13:36:00,
2013-05-09 08:41:00,60.5,58.1,29.92,ESE,113,1.1,2.2,92,0.00,,,0.00,WUHU216HW,2013-05-09 13:41:00,
2013-05-09 08:46:00,60.7,58.3,29.92,East,90,2.9,2.9,92,0.00,,,0.00,WUHU216HW,2013-05-09 13:46:00,
2013-05-09 08:51:00,60.7,58.3,29.92,ENE,68,2.7,3.1,92,0.00,,,0.00,WUHU216HW,2013-05-09 13:51:00,
2013-05-09 08:56:00,60.7,58.3,29.92,ESE,113,1.1,3.1,92,0.00,,,0.00,WUHU216HW,2013-05-09 13:56:00,
2013-05-09 09:01:00,60.8,58.5,29.92,SE,135,3.8,3.8,92,0.00,,,0.00,WUHU216HW,2013-05-09 14:01:00,
2013-05-09 09:06:00,60.7,58.3,29.92,SE,135,3.6,4.5,92,0.00,,,0.00,WUHU216HW,2013-05-09 14:06:00,
2013-05-09 09:11:00,60.7,58.3,29.92,ESE,113,3.6,4.5,92,0.00,,,0.00,WUHU216HW,2013-05-09 14:11:00,
2013-05-09 09:16:00,60.7,58.3,29.92,SSE,158,5.1,5.1,92,0.00,,,0.00,WUHU216HW,2013-05-09 14:16:00,
2013-05-09 09:21:00,60.7,58.3,29.93,ESE,113,5.4,5.4,92,0.00,,,0.00,WUHU216HW,2013-05-09 14:21:00,
2013-05-09 09:26:00,60.8,58.5,29.93,SSE,158,3.1,5.4,92,0.00,,,0.00,WUHU216HW,2013-05-09 14:26:00,
2013-05-09 09:31:00,60.8,58.5,29.94,South,180,2.5,4.3,92,0.00,,,0.00,WUHU216HW,2013-05-09 14:31:00,
2013-05-09 09:36:00,61.0,58.7,29.94,SSE,158,2.9,3.1,92,0.00,,,0.00,WUHU216HW,2013-05-09 14:36:00,
2013-05-09 09:41:00,61.0,58.7,29.94,SE,135,2.7,2.9,92,0.00,,,0.00,WUHU216HW,2013-05-09 14:41:00,
2013-05-09 09:46:00,61.0,58.7,29.94,SSE,158,3.4,3.4,92,0.00,,,0.00,WUHU216HW,2013-05-09 14:46:00,
2013-05-09 09:51:00,61.2,58.9,29.93,West,270,1.8,3.4,92,0.00,,,0.00,WUHU216HW,2013-05-09 14:51:00,
2013-05-09 09:56:00,61.4,59.0,29.93,SSW,203,1.6,2.7,92,0.00,,,0.00,WUHU216HW,2013-05-09 14:56:00,
2013-05-09 10:01:00,61.4,58.8,29.93,South,180,1.1,2.5,91,0.00,,,0.00,WUHU216HW,2013-05-09 15:01:00,
2013-05-09 10:06:00,61.6,59.2,29.93,SSE,158,2.5,3.1,92,0.00,,,0.00,WUHU216HW,2013-05-09 15:06:00,
2013-05-09 10:11:00,61.7,59.4,29.93,SSE,158,1.3,3.1,92,0.00,,,0.00,WUHU216HW,2013-05-09 15:11:00,
2013-05-09 10:16:00,61.9,59.3,29.93,SW,225,4.0,4.0,91,0.00,,,0.00,WUHU216HW,2013-05-09 15:16:00,
2013-05-09 10:21:00,62.1,59.5,29.93,SW,225,3.1,4.0,91,0.00,,,0.00,WUHU216HW,2013-05-09 15:21:00,
2013-05-09 10:26:00,62.3,59.7,29.93,SSW,203,3.4,3.6,91,0.00,,,0.00,WUHU216HW,2013-05-09 15:26:00,
2013-05-09 10:31:00,62.3,59.4,29.93,WSW,248,3.6,3.6,90,0.00,,,0.00,WUHU216HW,2013-05-09 15:31:00,
2013-05-09 10:36:00,62.6,59.8,29.93,SW,225,3.6,3.6,90,0.00,,,0.00,WUHU216HW,2013-05-09 15:36:00,
2013-05-09 10:41:00,62.6,59.4,29.93,SW,225,3.6,3.6,89,0.00,,,0.00,WUHU216HW,2013-05-09 15:41:00,
2013-05-09 10:46:00,63.0,59.8,29.93,SSW,203,2.5,5.1,89,0.00,,,0.00,WUHU216HW,2013-05-09 15:46:00,
2013-05-09 10:51:00,63.5,60.3,29.94,SSW,203,2.5,5.1,89,0.00,,,0.00,WUHU216HW,2013-05-09 15:51:00,
2013-05-09 10:56:00,63.9,60.3,29.93,SW,225,3.4,3.6,88,0.00,,,0.00,WUHU216HW,2013-05-09 15:56:00,
2013-05-09 11:01:00,63.9,59.3,29.93,SW,225,6.0,6.9,85,0.00,,,0.00,WUHU216HW,2013-05-09 16:01:00,
2013-05-09 11:06:00,64.4,59.5,29.93,West,270,4.9,6.9,84,0.00,,,0.00,WUHU216HW,2013-05-09 16:06:00,
2013-05-09 11:11:00,65.3,61.4,29.93,North,0,4.0,6.0,87,0.00,,,0.00,WUHU216HW,2013-05-09 16:11:00,
2013-05-09 11:16:00,66.8,61.5,29.93,West,270,9.6,9.8,83,0.00,,,0.00,WUHU216HW,2013-05-09 16:16:00,
2013-05-09 11:21:00,66.8,60.1,29.93,WNW,293,5.8,9.8,79,0.00,,,0.00,WUHU216HW,2013-05-09 16:21:00,
2013-05-09 11:26:00,68.0,61.0,29.93,West,270,5.1,6.0,78,0.00,,,0.00,WUHU216HW,2013-05-09 16:26:00,
2013-05-09 11:31:00,68.9,60.3,29.93,SW,225,6.3,7.8,74,0.00,,,0.00,WUHU216HW,2013-05-09 16:31:00,
2013-05-09 11:36:00,69.5,60.8,29.93,WSW,248,5.4,7.8,74,0.00,,,0.00,WUHU216HW,2013-05-09 16:36:00,
2013-05-09 11:41:00,70.6,61.8,29.93,SW,225,3.4,6.3,74,0.00,,,0.00,WUHU216HW,2013-05-09 16:41:00,
2013-05-09 11:46:00,71.5,61.9,29.93,WNW,293,5.6,5.6,72,0.00,,,0.00,WUHU216HW,2013-05-09 16:46:00,
2013-05-09 11:51:00,71.5,62.4,29.94,West,270,6.9,6.9,73,0.00,,,0.00,WUHU216HW,2013-05-09 16:51:00,
2013-05-09 11:56:00,70.4,60.1,29.94,WSW,248,4.5,6.9,70,0.00,,,0.00,WUHU216HW,2013-05-09 16:56:00,
2013-05-09 12:01:00,69.3,59.9,29.94,West,270,8.7,8.7,72,0.00,,,0.00,WUHU216HW,2013-05-09 17:01:00,
2013-05-09 12:06:00,68.6,59.9,29.94,WNW,293,9.2,9.2,74,0.00,,,0.00,WUHU216HW,2013-05-09 17:06:00,
2013-05-09 12:11:00,67.9,60.0,29.94,NW,315,9.6,10.3,76,0.00,,,0.00,WUHU216HW,2013-05-09 17:11:00,
2013-05-09 12:16:00,67.3,59.9,29.94,West,270,9.2,10.3,77,0.00,,,0.00,WUHU216HW,2013-05-09 17:16:00,
2013-05-09 12:21:00,67.7,60.2,29.94,WNW,293,7.4,10.5,77,0.00,,,0.00,WUHU216HW,2013-05-09 17:21:00,
2013-05-09 12:26:00,69.1,61.9,29.94,NNW,338,6.9,10.5,78,0.00,,,0.00,WUHU216HW,2013-05-09 17:26:00,
2013-05-09 12:31:00,70.4,61.3,29.94,WNW,293,7.2,9.8,73,0.00,,,0.00,WUHU216HW,2013-05-09 17:31:00,
2013-05-09 12:36:00,69.7,60.2,29.94,WNW,293,8.5,9.8,72,0.00,,,0.00,WUHU216HW,2013-05-09 17:36:00,
2013-05-09 12:41:00,68.8,60.1,29.94,WNW,293,6.5,9.6,74,0.00,,,0.00,WUHU216HW,2013-05-09 17:41:00,
2013-05-09 12:46:00,68.4,60.2,29.94,NNW,338,8.1,9.6,75,0.00,,,0.00,WUHU216HW,2013-05-09 17:46:00,
2013-05-09 12:51:00,67.9,60.0,29.94,NW,315,8.1,9.8,76,0.00,,,0.00,WUHU216HW,2013-05-09 17:51:00,
2013-05-09 12:56:00,67.7,60.2,29.94,NW,315,6.3,9.8,77,0.00,,,0.00,WUHU216HW,2013-05-09 17:56:00,
2013-05-09 13:01:00,67.9,60.4,29.94,WNW,293,8.5,8.5,77,0.00,,,0.00,WUHU216HW,2013-05-09 18:01:00,
2013-05-09 13:06:00,67.7,60.2,29.94,WNW,293,9.8,11.4,77,0.00,,,0.00,WUHU216HW,2013-05-09 18:06:00,
2013-05-09 13:11:00,68.0,60.2,29.94,WNW,293,8.9,11.4,76,0.00,,,0.00,WUHU216HW,2013-05-09 18:11:00,
2013-05-09 13:16:00,68.4,60.9,29.94,West,270,10.1,12.1,77,0.00,,,0.00,WUHU216HW,2013-05-09 18:16:00,
2013-05-09 13:21:00,69.5,61.6,29.94,NW,315,9.2,12.1,76,0.00,,,0.00,WUHU216HW,2013-05-09 18:21:00,
2013-05-09 13:26:00,69.3,61.0,29.94,NW,315,10.1,11.6,75,0.00,,,0.00,WUHU216HW,2013-05-09 18:26:00,
2013-05-09 13:31:00,68.2,60.0,29.94,WNW,293,11.9,11.9,75,0.00,,,0.00,WUHU216HW,2013-05-09 18:31:00,
2013-05-09 13:36:00,67.3,59.5,29.95,WNW,293,11.4,11.9,76,0.00,,,0.00,WUHU216HW,2013-05-09 18:36:00,
2013-05-09 13:41:00,66.8,59.8,29.95,West,270,11.2,12.3,78,0.00,,,0.00,WUHU216HW,2013-05-09 18:41:00,
2013-05-09 13:46:00,66.4,59.8,29.95,West,270,8.7,12.3,79,0.00,,,0.00,WUHU216HW,2013-05-09 18:46:00,
2013-05-09 13:51:00,66.4,59.4,29.95,WNW,293,7.6,11.2,78,0.00,,,0.00,WUHU216HW,2013-05-09 18:51:00,
2013-05-09 13:56:00,67.0,60.0,29.95,WSW,248,8.5,8.7,78,0.00,,,0.00,WUHU216HW,2013-05-09 18:56:00,
2013-05-09 14:01:00,67.0,59.5,29.95,SW,225,4.0,8.5,77,0.00,,,0.00,WUHU216HW,2013-05-09 19:01:00,
2013-05-09 14:06:00,67.7,60.7,29.95,West,270,8.5,8.5,78,0.00,,,0.00,WUHU216HW,2013-05-09 19:06:00,
2013-05-09 14:11:00,70.4,60.8,29.95,West,270,8.1,8.5,72,0.00,,,0.00,WUHU216HW,2013-05-09 19:11:00,
2013-05-09 14:16:00,71.1,61.6,29.95,WNW,293,7.6,8.1,72,0.00,,,0.00,WUHU216HW,2013-05-09 19:16:00,
2013-05-09 14:21:00,72.2,62.3,29.94,NW,315,6.7,9.8,71,0.00,,,0.00,WUHU216HW,2013-05-09 19:21:00,
2013-05-09 14:26:00,72.2,61.5,29.94,WNW,293,4.7,9.8,69,0.00,,,0.00,WUHU216HW,2013-05-09 19:26:00,
2013-05-09 14:31:00,72.5,61.8,29.94,West,270,6.7,6.7,69,0.00,,,0.00,WUHU216HW,2013-05-09 19:31:00,
2013-05-09 14:36:00,71.6,61.4,29.94,NW,315,8.3,8.9,70,0.00,,,0.00,WUHU216HW,2013-05-09 19:36:00,
2013-05-09 14:41:00,71.6,60.1,29.94,NW,315,5.6,10.5,67,0.00,,,0.00,WUHU216HW,2013-05-09 19:41:00,
2013-05-09 14:46:00,72.4,61.7,29.94,NNW,338,9.6,10.5,69,0.00,,,0.00,WUHU216HW,2013-05-09 19:46:00,
2013-05-09 14:51:00,72.9,61.7,29.94,North,0,6.0,10.5,68,0.00,,,0.00,WUHU216HW,2013-05-09 19:51:00,
2013-05-09 14:56:00,72.7,61.1,29.94,NW,315,8.7,10.5,67,0.00,,,0.00,WUHU216HW,2013-05-09 19:56:00,
2013-05-09 15:01:00,72.4,60.8,29.93,WNW,293,8.3,8.7,67,0.00,,,0.00,WUHU216HW,2013-05-09 20:01:00,
2013-05-09 15:06:00,73.1,62.8,29.93,NW,315,7.4,8.9,70,0.00,,,0.00,WUHU216HW,2013-05-09 20:06:00,
2013-05-09 15:11:00,75.1,63.8,29.93,NNW,338,7.6,7.6,68,0.00,,,0.00,WUHU216HW,2013-05-09 20:11:00,
2013-05-09 15:16:00,75.4,62.4,29.93,NW,315,9.2,9.2,64,0.00,,,0.00,WUHU216HW,2013-05-09 20:16:00,
2013-05-09 15:21:00,74.0,61.0,29.92,WNW,293,5.8,9.2,64,0.00,,,0.00,WUHU216HW,2013-05-09 20:21:00,
2013-05-09 15:26:00,73.8,62.7,29.92,NW,315,7.6,9.2,68,0.00,,,0.00,WUHU216HW,2013-05-09 20:26:00,
2013-05-09 15:31:00,73.8,61.3,29.93,NW,315,8.1,9.2,65,0.00,,,0.00,WUHU216HW,2013-05-09 20:31:00,
2013-05-09 15:36:00,73.8,61.8,29.93,NW,315,10.7,10.7,66,0.00,,,0.00,WUHU216HW,2013-05-09 20:36:00,
2013-05-09 15:41:00,74.5,61.6,29.93,NNW,338,8.5,10.7,64,0.00,,,0.00,WUHU216HW,2013-05-09 20:41:00,
2013-05-09 15:46:00,74.3,60.5,29.93,NW,315,10.3,11.4,62,0.00,,,0.00,WUHU216HW,2013-05-09 20:46:00,
2013-05-09 15:51:00,75.4,62.8,29.93,NW,315,8.5,11.4,65,0.00,,,0.00,WUHU216HW,2013-05-09 20:51:00,
2013-05-09 15:56:00,74.7,61.3,29.93,NW,315,8.5,8.5,63,0.00,,,0.00,WUHU216HW,2013-05-09 20:56:00,
2013-05-09 16:01:00,72.9,60.8,29.93,NNW,338,3.4,9.8,66,0.00,,,0.00,WUHU216HW,2013-05-09 21:01:00,
2013-05-09 16:06:00,72.5,60.5,29.93,WNW,293,10.1,10.1,66,0.00,,,0.00,WUHU216HW,2013-05-09 21:06:00,
2013-05-09 16:11:00,72.7,60.7,29.93,North,0,8.5,12.8,66,0.00,,,0.00,WUHU216HW,2013-05-09 21:11:00,
2013-05-09 16:16:00,72.9,60.8,29.94,NNW,338,8.1,12.8,66,0.00,,,0.00,WUHU216HW,2013-05-09 21:16:00,
2013-05-09 16:21:00,72.4,60.3,29.94,NW,315,8.3,12.1,66,0.00,,,0.00,WUHU216HW,2013-05-09 21:21:00,
2013-05-09 16:26:00,72.2,61.5,29.94,WNW,293,12.5,12.5,69,0.00,,,0.00,WUHU216HW,2013-05-09 21:26:00,
2013-05-09 16:31:00,72.4,60.3,29.94,NNW,338,8.1,12.5,66,0.00,,,0.00,WUHU216HW,2013-05-09 21:31:00,
2013-05-09 16:36:00,71.1,59.1,29.94,NNW,338,7.8,12.1,66,0.00,,,0.00,WUHU216HW,2013-05-09 21:36:00,
2013-05-09 16:41:00,70.6,59.5,29.94,NNW,338,6.3,10.3,68,0.00,,,0.00,WUHU216HW,2013-05-09 21:41:00,
2013-05-09 16:46:00,70.4,59.3,29.94,NW,315,6.9,10.5,68,0.00,,,0.00,WUHU216HW,2013-05-09 21:46:00,
2013-05-09 16:51:00,70.4,58.9,29.95,NW,315,6.9,11.4,67,0.00,,,0.00,WUHU216HW,2013-05-09 21:51:00,
2013-05-09 16:56:00,72.4,60.8,29.94,NW,315,9.2,11.4,67,0.00,,,0.00,WUHU216HW,2013-05-09 21:56:00,
2013-05-09 17:01:00,72.7,60.2,29.94,NNW,338,8.9,9.8,65,0.00,,,0.00,WUHU216HW,2013-05-09 22:01:00,
2013-05-09 17:06:00,71.8,59.4,29.94,NW,315,9.8,10.5,65,0.00,,,0.00,WUHU216HW,2013-05-09 22:06:00,
2013-05-09 17:11:00,72.5,60.0,29.94,NNW,338,8.3,11.0,65,0.00,,,0.00,WUHU216HW,2013-05-09 22:11:00,
2013-05-09 17:16:00,73.4,60.5,29.94,NW,315,6.3,11.0,64,0.00,,,0.00,WUHU216HW,2013-05-09 22:16:00,
2013-05-09 17:21:00,72.5,59.2,29.94,NNW,338,4.0,8.3,63,0.00,,,0.00,WUHU216HW,2013-05-09 22:21:00,
2013-05-09 17:26:00,71.1,58.7,29.95,NW,315,3.8,8.3,65,0.00,,,0.00,WUHU216HW,2013-05-09 22:26:00,
2013-05-09 17:31:00,70.2,58.2,29.95,WNW,293,9.6,9.6,66,0.00,,,0.00,WUHU216HW,2013-05-09 22:31:00,
2013-05-09 17:36:00,69.5,57.6,29.94,WNW,293,7.6,9.6,66,0.00,,,0.00,WUHU216HW,2013-05-09 22:36:00,
2013-05-09 17:41:00,69.3,57.9,29.94,West,270,5.4,8.5,67,0.00,,,0.00,WUHU216HW,2013-05-09 22:41:00,
2013-05-09 17:46:00,69.3,58.7,29.94,NNW,338,8.3,8.3,69,0.00,,,0.00,WUHU216HW,2013-05-09 22:46:00,
2013-05-09 17:51:00,69.7,58.6,29.94,WNW,293,4.7,8.3,68,0.00,,,0.00,WUHU216HW,2013-05-09 22:51:00,
2013-05-09 17:56:00,69.8,58.8,29.94,WNW,293,5.4,8.1,68,0.00,,,0.00,WUHU216HW,2013-05-09 22:56:00,
2013-05-09 18:01:00,69.5,58.9,29.94,WNW,293,4.0,6.7,69,0.00,,,0.00,WUHU216HW,2013-05-09 23:01:00,
2013-05-09 18:06:00,69.5,58.9,29.94,WNW,293,4.7,6.0,69,0.00,,,0.00,WUHU216HW,2013-05-09 23:06:00,
2013-05-09 18:11:00,69.3,58.7,29.93,NW,315,9.6,9.6,69,0.00,,,0.00,WUHU216HW,2013-05-09 23:11:00,
2013-05-09 18:16:00,68.9,58.3,29.93,NW,315,4.3,9.6,69,0.00,,,0.00,WUHU216HW,2013-05-09 23:16:00,
2013-05-09 18:21:00,69.1,58.5,29.93,NW,315,2.9,6.7,69,0.00,,,0.00,WUHU216HW,2013-05-09 23:21:00,
2013-05-09 18:26:00,69.3,58.7,29.93,NW,315,4.0,6.0,69,0.00,,,0.00,WUHU216HW,2013-05-09 23:26:00,
2013-05-09 18:31:00,69.3,58.7,29.93,NW,315,4.0,6.0,69,0.00,,,0.00,WUHU216HW,2013-05-09 23:31:00,
2013-05-09 18:36:00,69.5,58.9,29.93,WNW,293,2.5,5.6,69,0.00,,,0.00,WUHU216HW,2013-05-09 23:36:00,
2013-05-09 18:41:00,69.5,58.9,29.93,NW,315,2.9,4.5,69,0.00,,,0.00,WUHU216HW,2013-05-09 23:41:00,
2013-05-09 18:46:00,69.5,58.9,29.93,NW,315,2.5,4.5,69,0.00,,,0.00,WUHU216HW,2013-05-09 23:46:00,
2013-05-09 18:51:00,69.3,58.2,29.94,NNW,338,2.9,6.3,68,0.00,,,0.00,WUHU216HW,2013-05-09 23:51:00,
2013-05-09 18:56:00,69.1,58.5,29.94,WNW,293,2.5,6.3,69,0.00,,,0.00,WUHU216HW,2013-05-09 23:56:00,
2013-05-09 19:01:00,68.9,58.3,29.94,NW,315,3.1,3.8,69,0.00,,,0.00,WUHU216HW,2013-05-10 00:01:00,
2013-05-09 19:06:00,68.8,58.1,29.95,West,270,2.2,3.8,69,0.00,,,0.00,WUHU216HW,2013-05-10 00:06:00,
2013-05-09 19:11:00,68.4,58.3,29.95,West,270,2.7,3.4,70,0.00,,,0.00,WUHU216HW,2013-05-10 00:11:00,
2013-05-09 19:16:00,68.2,58.2,29.95,WNW,293,2.9,3.4,70,0.00,,,0.00,WUHU216HW,2013-05-10 00:16:00,
2013-05-09 19:21:00,68.2,58.5,29.94,WNW,293,2.9,3.6,71,0.00,,,0.00,WUHU216HW,2013-05-10 00:21:00,
2013-05-09 19:26:00,68.2,58.5,29.94,NW,315,4.0,4.5,71,0.00,,,0.00,WUHU216HW,2013-05-10 00:26:00,
2013-05-09 19:31:00,68.2,58.5,29.94,NW,315,2.7,4.5,71,0.00,,,0.00,WUHU216HW,2013-05-10 00:31:00,
2013-05-09 19:36:00,68.2,58.5,29.95,NW,315,2.7,4.0,71,0.00,,,0.00,WUHU216HW,2013-05-10 00:36:00,
2013-05-09 19:41:00,68.2,58.5,29.94,WNW,293,2.7,4.0,71,0.00,,,0.00,WUHU216HW,2013-05-10 00:41:00,
2013-05-09 19:46:00,67.9,58.1,29.94,NNW,338,4.0,4.0,71,0.00,,,0.00,WUHU216HW,2013-05-10 00:46:00,
2013-05-09 19:51:00,67.5,57.8,29.94,NW,315,2.7,4.7,71,0.00,,,0.00,WUHU216HW,2013-05-10 00:51:00,
2013-05-09 19:56:00,67.1,57.4,29.94,NW,315,3.4,4.7,71,0.00,,,0.00,WUHU216HW,2013-05-10 00:56:00,
2013-05-09 20:01:00,66.6,57.2,29.94,NW,315,1.3,3.4,72,0.00,,,0.00,WUHU216HW,2013-05-10 01:01:00,
2013-05-09 20:06:00,66.2,56.9,29.95,WNW,293,2.5,2.9,72,0.00,,,0.00,WUHU216HW,2013-05-10 01:06:00,
2013-05-09 20:11:00,65.5,57.0,29.95,WNW,293,3.1,3.4,74,0.00,,,0.00,WUHU216HW,2013-05-10 01:11:00,
2013-05-09 20:16:00,65.3,56.8,29.95,North,0,2.5,4.0,74,0.00,,,0.00,WUHU216HW,2013-05-10 01:16:00,
2013-05-09 20:21:00,65.2,56.3,29.95,WNW,293,2.5,4.0,73,0.00,,,0.00,WUHU216HW,2013-05-10 01:21:00,
2013-05-09 20:26:00,65.0,55.8,29.95,NNW,338,5.4,5.4,72,0.00,,,0.00,WUHU216HW,2013-05-10 01:26:00,
2013-05-09 20:31:00,64.6,55.5,29.95,NNW,338,2.5,5.4,72,0.00,,,0.00,WUHU216HW,2013-05-10 01:31:00,
2013-05-09 20:36:00,64.4,54.9,29.95,NW,315,3.6,4.0,71,0.00,,,0.00,WUHU216HW,2013-05-10 01:36:00,
2013-05-09 20:41:00,64.1,54.2,29.95,NNW,338,3.4,4.5,70,0.00,,,0.00,WUHU216HW,2013-05-10 01:41:00,
2013-05-09 20:46:00,63.7,53.8,29.95,North,0,2.5,4.5,70,0.00,,,0.00,WUHU216HW,2013-05-10 01:46:00,
2013-05-09 20:51:00,63.7,54.2,29.95,North,0,1.8,4.0,71,0.00,,,0.00,WUHU216HW,2013-05-10 01:51:00,
2013-05-09 20:56:00,63.4,53.8,29.95,NW,315,3.6,3.8,71,0.00,,,0.00,WUHU216HW,2013-05-10 01:56:00,
2013-05-09 21:01:00,63.2,53.6,29.95,NNW,338,4.0,4.7,71,0.00,,,0.00,WUHU216HW,2013-05-10 02:01:00,
2013-05-09 21:06:00,63.0,53.8,29.95,NNW,338,1.6,4.7,72,0.00,,,0.00,WUHU216HW,2013-05-10 02:06:00,
2013-05-09 21:11:00,62.8,53.6,29.96,NW,315,1.8,3.1,72,0.00,,,0.00,WUHU216HW,2013-05-10 02:11:00,
2013-05-09 21:16:00,62.5,53.6,29.95,WNW,293,2.5,2.9,73,0.00,,,0.00,WUHU216HW,2013-05-10 02:16:00,
2013-05-09 21:21:00,61.9,53.2,29.96,NNE,23,2.5,2.9,73,0.00,,,0.00,WUHU216HW,2013-05-10 02:21:00,
2013-05-09 21:26:00,61.9,53.6,29.96,NNW,338,2.2,2.5,74,0.00,,,0.00,WUHU216HW,2013-05-10 02:26:00,
2013-05-09 21:31:00,61.7,53.4,29.96,WNW,293,0.4,2.2,74,0.00,,,0.00,WUHU216HW,2013-05-10 02:31:00,
2013-05-09 21:36:00,61.6,53.6,29.96,WNW,293,0.9,2.2,75,0.00,,,0.00,WUHU216HW,2013-05-10 02:36:00,
2013-05-09 21:41:00,61.2,53.7,29.96,WSW,248,0.7,1.1,76,0.00,,,0.00,WUHU216HW,2013-05-10 02:41:00,
2013-05-09 21:46:00,60.8,53.3,29.96,WSW,248,1.1,1.3,76,0.00,,,0.00,WUHU216HW,2013-05-10 02:46:00,
2013-05-09 21:51:00,60.7,53.1,29.96,SW,225,1.1,1.3,76,0.00,,,0.00,WUHU216HW,2013-05-10 02:51:00,
2013-05-09 21:56:00,60.3,53.1,29.97,WSW,248,0.0,1.1,77,0.00,,,0.00,WUHU216HW,2013-05-10 02:56:00,
2013-05-09 22:01:00,60.3,53.1,29.97,WSW,248,0.9,0.9,77,0.00,,,0.00,WUHU216HW,2013-05-10 03:01:00,
2013-05-09 22:06:00,60.3,53.5,29.97,West,270,0.4,0.9,78,0.00,,,0.00,WUHU216HW,2013-05-10 03:06:00,
2013-05-09 22:11:00,60.1,53.3,29.97,WSW,248,0.7,1.1,78,0.00,,,0.00,WUHU216HW,2013-05-10 03:11:00,
2013-05-09 22:16:00,60.1,53.6,29.97,West,270,1.1,1.1,79,0.00,,,0.00,WUHU216HW,2013-05-10 03:16:00,
2013-05-09 22:21:00,60.1,53.6,29.97,North,0,1.1,1.1,79,0.00,,,0.00,WUHU216HW,2013-05-10 03:21:00,
2013-05-09 22:26:00,60.1,53.6,29.96,NW,315,3.4,3.4,79,0.00,,,0.00,WUHU216HW,2013-05-10 03:26:00,
2013-05-09 22:31:00,60.1,54.0,29.96,NNW,338,3.4,3.4,80,0.00,,,0.00,WUHU216HW,2013-05-10 03:31:00,
2013-05-09 22:36:00,60.3,54.6,29.96,NNW,338,2.5,3.4,81,0.00,,,0.00,WUHU216HW,2013-05-10 03:36:00,
2013-05-09 22:41:00,60.3,54.6,29.96,North,0,1.1,3.6,81,0.00,,,0.00,WUHU216HW,2013-05-10 03:41:00,
2013-05-09 22:46:00,60.5,54.7,29.96,NNW,338,2.0,3.6,81,0.00,,,0.00,WUHU216HW,2013-05-10 03:46:00,
2013-05-09 22:51:00,60.3,54.2,29.96,NW,315,2.2,2.2,80,0.00,,,0.00,WUHU216HW,2013-05-10 03:51:00,
2013-05-09 22:56:00,60.1,54.0,29.97,NW,315,1.6,2.5,80,0.00,,,0.00,WUHU216HW,2013-05-10 03:56:00,
2013-05-09 23:01:00,59.9,53.8,29.96,NNW,338,2.0,2.5,80,0.00,,,0.00,WUHU216HW,2013-05-10 04:01:00,
2013-05-09 23:06:00,59.4,53.7,29.97,NNW,338,2.7,2.7,81,0.00,,,0.00,WUHU216HW,2013-05-10 04:06:00,
2013-05-09 23:11:00,59.0,53.3,29.97,NW,315,2.9,3.4,81,0.00,,,0.00,WUHU216HW,2013-05-10 04:11:00,
2013-05-09 23:16:00,59.0,53.6,29.96,NNW,338,1.3,3.4,82,0.00,,,0.00,WUHU216HW,2013-05-10 04:16:00,
2013-05-09 23:21:00,59.2,53.7,29.97,NNE,23,1.1,1.8,82,0.00,,,0.00,WUHU216HW,2013-05-10 04:21:00,
2013-05-09 23:26:00,59.6,54.1,29.96,North,0,1.8,1.8,82,0.00,,,0.00,WUHU216HW,2013-05-10 04:26:00,
2013-05-09 23:31:00,59.8,54.3,29.97,NE,45,0.9,1.8,82,0.00,,,0.00,WUHU216HW,2013-05-10 04:31:00,
2013-05-09 23:36:00,59.8,54.0,29.97,NE,45,0.4,0.9,81,0.00,,,0.00,WUHU216HW,2013-05-10 04:36:00,
2013-05-09 23:41:00,59.8,54.0,29.97,West,270,0.9,0.9,81,0.00,,,0.00,WUHU216HW,2013-05-10 04:41:00,
2013-05-09 23:46:00,59.4,53.7,29.97,NW,315,0.4,1.1,81,0.00,,,0.00,WUHU216HW,2013-05-10 04:46:00,
2013-05-09 23:51:00,59.0,53.3,29.97,NNW,338,0.7,1.1,81,0.00,,,0.00,WUHU216HW,2013-05-10 04:51:00,
2013-05-09 23:56:00,58.7,53.2,29.98,WNW,293,1.1,1.6,82,0.00,,,0.00,WUHU216HW,2013-05-10 04:56:00,